| time (UTC) | temp F | wind direction | speed MPH | gust MPH | rain 1hr in | rain 24hr in | rain mn in | humidity % | barometer mb |
| 20260905102051 | 74 | 0 | 0.0 | 0.0 | 0.00 | 0.01 | 0.00 | 92 | 1013.4 |
| 20260905101602 | 74 | 0 | 0.0 | 0.0 | 0.00 | 0.01 | 0.00 | 92 | 1013.4 |
| 20260905101054 | 75 | 0 | 0.0 | 0.0 | 0.00 | 0.01 | 0.00 | 92 | 1013.5 |
| 20260905100551 | 75 | 0 | 0.0 | 0.0 | 0.00 | 0.01 | 0.00 | 92 | 1013.4 |
| 20260905100105 | 75 | 0 | 0.0 | 0.0 | 0.00 | 0.01 | 0.00 | 92 | 1013.3 |
| 20260905095557 | 75 | 0 | 0.0 | 0.0 | 0.00 | 0.01 | 0.00 | 92 | 1013.3 |
| 20260905095051 | 75 | 0 | 0.0 | 0.0 | 0.00 | 0.01 | 0.00 | 92 | 1013.1 |
| 20260905094719 | 75 | 0 | 0.0 | 0.0 | 0.00 | 0.01 | 0.00 | 92 | 1013.2 |
| 20260905094051 | 75 | 0 | 0.0 | 0.0 | 0.00 | 0.01 | 0.00 | 92 | 1013.3 |
| 20260905093551 | 75 | 0 | 0.0 | 0.0 | 0.00 | 0.01 | 0.00 | 92 | 1013.2 |
| 20260905093126 | 76 | 0 | 0.0 | 0.0 | 0.00 | 0.01 | 0.00 | 92 | 1013.2 |
| 20260905092554 | 76 | 0 | 0.0 | 0.0 | 0.00 | 0.01 | 0.00 | 92 | 1013.1 |
| 20260905092051 | 76 | 0 | 0.0 | 0.0 | 0.00 | 0.01 | 0.00 | 92 | 1013.1 |
| 20260905091602 | 76 | 0 | 0.0 | 0.0 | 0.00 | 0.01 | 0.00 | 92 | 1013.2 |
| 20260905091055 | 76 | 0 | 0.0 | 0.0 | 0.00 | 0.01 | 0.00 | 92 | 1013.3 |
| 20260905090554 | 76 | 0 | 0.0 | 0.0 | 0.00 | 0.01 | 0.00 | 92 | 1013.2 |
| 20260905085555 | 76 | 0 | 0.0 | 1.0 | 0.00 | 0.01 | 0.00 | 92 | 1013.4 |
| 20260905085052 | 76 | 0 | 0.0 | 0.0 | 0.00 | 0.01 | 0.00 | 92 | 1013.2 |
| 20260905084608 | 76 | 0 | 0.0 | 0.0 | 0.00 | 0.01 | 0.00 | 91 | 1013.3 |
| 20260905084052 | 76 | 0 | 0.0 | 0.0 | 0.00 | 0.01 | 0.00 | 91 | 1013.3 |
| 20260905083552 | 76 | 0 | 0.0 | 0.0 | 0.00 | 0.01 | 0.00 | 91 | 1013.2 |
| 20260905083056 | 76 | 0 | 0.0 | 0.0 | 0.00 | 0.01 | 0.00 | 91 | 1013.2 |
| 20260905082551 | 76 | 0 | 0.0 | 0.0 | 0.00 | 0.01 | 0.00 | 91 | 1013.2 |
| 20260905082057 | 76 | 0 | 0.0 | 0.0 | 0.00 | 0.01 | 0.00 | 91 | 1013.2 |
| 20260905081557 | 76 | 0 | 0.0 | 0.0 | 0.00 | 0.01 | 0.00 | 90 | 1013.2 |
| 20260905081054 | 76 | 0 | 0.0 | 0.0 | 0.00 | 0.01 | 0.00 | 90 | 1013.2 |
| 20260905080557 | 76 | 0 | 0.0 | 0.0 | 0.00 | 0.01 | 0.00 | 90 | 1013.3 |
| 20260905080118 | 76 | 0 | 0.0 | 0.0 | 0.00 | 0.01 | 0.00 | 90 | 1013.2 |
| 20260905075551 | 77 | 0 | 0.0 | 0.0 | 0.00 | 0.01 | 0.00 | 90 | 1013.2 |
| 20260905075051 | 77 | 0 | 0.0 | 0.0 | 0.00 | 0.01 | 0.00 | 90 | 1013.2 |
| 20260905074606 | 77 | 0 | 0.0 | 0.0 | 0.00 | 0.01 | 0.00 | 90 | 1013.2 |
| 20260905074050 | 77 | 0 | 0.0 | 0.0 | 0.00 | 0.01 | 0.00 | 90 | 1013.2 |
| 20260905073551 | 77 | 0 | 0.0 | 0.0 | 0.00 | 0.01 | 0.00 | 90 | 1013.4 |
| 20260905073110 | 77 | 0 | 0.0 | 0.0 | 0.00 | 0.01 | 0.00 | 90 | 1013.5 |
| 20260905072555 | 77 | 0 | 0.0 | 0.0 | 0.00 | 0.01 | 0.00 | 90 | 1013.5 |
| 20260905072057 | 77 | 0 | 0.0 | 0.0 | 0.00 | 0.01 | 0.00 | 90 | 1013.6 |
| 20260905071556 | 77 | 0 | 0.0 | 0.0 | 0.00 | 0.01 | 0.00 | 90 | 1013.7 |
| 20260905071054 | 78 | 0 | 0.0 | 0.0 | 0.00 | 0.01 | 0.00 | 90 | 1013.7 |
| 20260905070554 | 78 | 0 | 0.0 | 0.0 | 0.00 | 0.01 | 0.00 | 90 | 1013.9 |
| 20260905070105 | 78 | 0 | 0.0 | 2.0 | 0.00 | 0.01 | 0.00 | 90 | 1013.7 |
| 20260905065553 | 78 | 0 | 0.0 | 2.0 | 0.00 | 0.01 | 0.00 | 90 | 1013.9 |
| 20260905065051 | 78 | 183 | 0.0 | 0.0 | 0.00 | 0.01 | 0.00 | 90 | 1013.9 |
| 20260905064600 | 78 | 0 | 0.0 | 0.0 | 0.00 | 0.01 | 0.00 | 89 | 1013.8 |
| 20260905064055 | 78 | 0 | 0.0 | 2.0 | 0.00 | 0.01 | 0.00 | 89 | 1013.7 |
| 20260905063553 | 78 | 0 | 0.0 | 2.0 | 0.00 | 0.01 | 0.00 | 89 | 1013.7 |
| 20260905063106 | 78 | 0 | 0.0 | 0.0 | 0.00 | 0.01 | 0.00 | 89 | 1013.9 |
| 20260905062552 | 78 | 0 | 0.0 | 0.0 | 0.00 | 0.01 | 0.00 | 89 | 1013.9 |
| 20260905062052 | 78 | 0 | 0.0 | 0.0 | 0.00 | 0.01 | 0.00 | 89 | 1014.0 |
| 20260905061605 | 78 | 0 | 0.0 | 0.0 | 0.00 | 0.01 | 0.00 | 89 | 1013.9 |
| 20260905061055 | 79 | 0 | 0.0 | 0.0 | 0.00 | 0.01 | 0.00 | 89 | 1014.0 |
| 20260905060552 | 79 | 0 | 0.0 | 0.0 | 0.00 | 0.01 | 0.00 | 89 | 1013.9 |
| 20260905060109 | 79 | 0 | 0.0 | 0.0 | 0.00 | 0.01 | 0.00 | 89 | 1013.7 |
| 20260905055554 | 79 | 0 | 0.0 | 0.0 | 0.00 | 0.01 | 0.00 | 89 | 1013.9 |
| 20260905055053 | 79 | 0 | 0.0 | 0.0 | 0.00 | 0.01 | 0.00 | 89 | 1013.9 |
| 20260905054607 | 79 | 0 | 0.0 | 0.0 | 0.00 | 0.01 | 0.00 | 89 | 1013.9 |
| 20260905054057 | 79 | 0 | 0.0 | 3.0 | 0.00 | 0.01 | 0.00 | 89 | 1014.1 |
| 20260905053555 | 79 | 0 | 0.0 | 3.0 | 0.00 | 0.01 | 0.00 | 89 | 1014.0 |
| 20260905053058 | 79 | 183 | 0.0 | 3.0 | 0.00 | 0.01 | 0.00 | 89 | 1013.9 |
| 20260905052552 | 80 | 0 | 1.0 | 3.0 | 0.00 | 0.01 | 0.00 | 89 | 1013.8 |
| 20260905052056 | 80 | 0 | 0.0 | 3.0 | 0.00 | 0.01 | 0.00 | 89 | 1013.9 |
| 20260905051610 | 80 | 0 | 0.0 | 3.0 | 0.00 | 0.01 | 0.00 | 89 | 1013.9 |
| 20260905051056 | 80 | 183 | 0.0 | 0.0 | 0.00 | 0.01 | 0.00 | 89 | 1013.9 |
| 20260905050553 | 80 | 0 | 0.0 | 1.0 | 0.00 | 0.01 | 0.00 | 89 | 1013.9 |
| 20260905050107 | 80 | 0 | 0.0 | 2.0 | 0.00 | 0.01 | 0.00 | 89 | 1013.9 |
| 20260905045553 | 80 | 0 | 0.0 | 4.0 | 0.00 | 0.01 | 0.01 | 89 | 1014.1 |
| 20260905045053 | 80 | 0 | 0.0 | 4.0 | 0.00 | 0.01 | 0.01 | 89 | 1014.1 |
| 20260905044604 | 80 | 180 | 1.0 | 4.0 | 0.00 | 0.01 | 0.01 | 89 | 1014.2 |
| 20260905044052 | 80 | 0 | 1.0 | 4.0 | 0.00 | 0.01 | 0.01 | 88 | 1014.2 |
| 20260905043554 | 80 | 188 | 1.0 | 5.0 | 0.00 | 0.01 | 0.01 | 88 | 1014.2 |
| 20260905043059 | 80 | 187 | 2.0 | 5.0 | 0.00 | 0.01 | 0.01 | 88 | 1014.1 |
| 20260905042555 | 80 | 180 | 2.0 | 5.0 | 0.00 | 0.01 | 0.01 | 88 | 1014.1 |
| 20260905042054 | 80 | 150 | 0.0 | 3.0 | 0.00 | 0.01 | 0.01 | 88 | 1014.3 |
| 20260905041610 | 80 | 0 | 1.0 | 5.0 | 0.00 | 0.01 | 0.01 | 88 | 1014.4 |
| 20260905041053 | 80 | 143 | 1.0 | 6.0 | 0.00 | 0.01 | 0.01 | 88 | 1014.3 |
| 20260905040553 | 80 | 0 | 1.0 | 6.0 | 0.00 | 0.01 | 0.01 | 88 | 1014.3 |
| 20260905040112 | 80 | 0 | 0.0 | 5.0 | 0.00 | 0.01 | 0.01 | 88 | 1014.2 |
| 20260905035554 | 80 | 0 | 1.0 | 5.0 | 0.00 | 0.01 | 0.01 | 88 | 1014.1 |
| 20260905035053 | 80 | 159 | 1.0 | 5.0 | 0.00 | 0.01 | 0.01 | 88 | 1014.1 |
| 20260905034607 | 80 | 136 | 0.0 | 5.0 | 0.00 | 0.01 | 0.01 | 88 | 1014.3 |
| 20260905034052 | 80 | 0 | 1.0 | 5.0 | 0.00 | 0.01 | 0.01 | 88 | 1014.3 |
| 20260905033553 | 80 | 162 | 1.0 | 5.0 | 0.00 | 0.01 | 0.01 | 88 | 1014.2 |
| 20260905033109 | 80 | 154 | 2.0 | 5.0 | 0.00 | 0.01 | 0.01 | 88 | 1014.2 |
| 20260905032555 | 79 | 153 | 1.0 | 5.0 | 0.00 | 0.01 | 0.01 | 87 | 1014.2 |
| 20260905032053 | 79 | 164 | 0.0 | 3.0 | 0.00 | 0.01 | 0.01 | 86 | 1014.1 |
| 20260905031616 | 79 | 0 | 0.0 | 2.0 | 0.00 | 0.01 | 0.01 | 86 | 1014.0 |
| 20260905031053 | 79 | 0 | 0.0 | 0.0 | 0.00 | 0.01 | 0.01 | 85 | 1014.1 |
| 20260905030553 | 79 | 0 | 0.0 | 0.0 | 0.00 | 0.01 | 0.01 | 84 | 1014.1 |
| 20260905030123 | 79 | 0 | 0.0 | 0.0 | 0.00 | 0.01 | 0.01 | 84 | 1014.1 |
| 20260905025555 | 79 | 0 | 0.0 | 0.0 | 0.00 | 0.01 | 0.01 | 84 | 1014.0 |
| 20260905025053 | 79 | 0 | 0.0 | 0.0 | 0.00 | 0.01 | 0.01 | 84 | 1013.9 |
| 20260905024617 | 80 | 0 | 0.0 | 0.0 | 0.00 | 0.01 | 0.01 | 84 | 1013.9 |
| 20260905024057 | 80 | 0 | 0.0 | 0.0 | 0.00 | 0.01 | 0.01 | 84 | 1013.9 |
| 20260905023556 | 80 | 0 | 0.0 | 0.0 | 0.00 | 0.01 | 0.01 | 84 | 1013.7 |
| 20260905023108 | 80 | 0 | 0.0 | 0.0 | 0.00 | 0.01 | 0.01 | 83 | 1013.7 |
| 20260905022555 | 80 | 0 | 0.0 | 0.0 | 0.00 | 0.01 | 0.01 | 83 | 1013.7 |
| 20260905022054 | 80 | 0 | 0.0 | 0.0 | 0.00 | 0.01 | 0.01 | 83 | 1013.7 |
| 20260905021615 | 80 | 0 | 0.0 | 0.0 | 0.00 | 0.01 | 0.01 | 83 | 1013.6 |
| 20260905021054 | 81 | 0 | 0.0 | 0.0 | 0.00 | 0.01 | 0.01 | 82 | 1013.5 |
| 20260905020554 | 81 | 0 | 0.0 | 0.0 | 0.00 | 0.01 | 0.01 | 82 | 1013.4 |
| 20260905020059 | 81 | 0 | 0.0 | 0.0 | 0.00 | 0.01 | 0.01 | 82 | 1013.5 |
| 20260905015553 | 82 | 0 | 0.0 | 0.0 | 0.00 | 0.01 | 0.01 | 81 | 1013.4 |
| 20260905015053 | 82 | 0 | 0.0 | 0.0 | 0.00 | 0.01 | 0.01 | 80 | 1013.3 |
| 20260905014557 | 82 | 0 | 0.0 | 0.0 | 0.00 | 0.01 | 0.01 | 79 | 1013.3 |
| 20260905014055 | 82 | 0 | 0.0 | 0.0 | 0.00 | 0.01 | 0.01 | 79 | 1013.1 |
| 20260905013553 | 83 | 0 | 0.0 | 0.0 | 0.00 | 0.01 | 0.01 | 79 | 1013.1 |
| 20260905013117 | 83 | 0 | 0.0 | 0.0 | 0.00 | 0.01 | 0.01 | 79 | 1013.0 |
| 20260905012554 | 84 | 0 | 0.0 | 0.0 | 0.00 | 0.01 | 0.01 | 78 | 1013.1 |
| 20260905012055 | 84 | 0 | 0.0 | 0.0 | 0.00 | 0.01 | 0.01 | 77 | 1013.2 |
| 20260905011613 | 84 | 0 | 0.0 | 0.0 | 0.00 | 0.01 | 0.01 | 77 | 1013.0 |
| 20260905011054 | 85 | 0 | 0.0 | 0.0 | 0.00 | 0.01 | 0.01 | 76 | 1013.0 |
| 20260905010554 | 85 | 0 | 0.0 | 0.0 | 0.00 | 0.01 | 0.01 | 76 | 1013.0 |
| 20260905010106 | 85 | 0 | 0.0 | 0.0 | 0.00 | 0.01 | 0.01 | 75 | 1013.0 |
| 20260905005551 | 86 | 0 | 0.0 | 0.0 | 0.00 | 0.01 | 0.01 | 75 | 1012.9 |
| 20260905005053 | 86 | 0 | 0.0 | 0.0 | 0.00 | 0.01 | 0.01 | 74 | 1012.8 |
| 20260905004600 | 86 | 0 | 0.0 | 0.0 | 0.00 | 0.01 | 0.01 | 74 | 1012.7 |
| 20260905004054 | 87 | 0 | 0.0 | 2.0 | 0.00 | 0.01 | 0.01 | 74 | 1012.6 |
| 20260905003554 | 87 | 0 | 0.0 | 4.0 | 0.00 | 0.01 | 0.01 | 74 | 1012.6 |
| 20260905003101 | 87 | 0 | 1.0 | 4.0 | 0.00 | 0.01 | 0.01 | 73 | 1012.5 |
| 20260905002554 | 87 | 0 | 0.0 | 5.0 | 0.00 | 0.01 | 0.01 | 73 | 1012.5 |
| 20260905002053 | 87 | 0 | 0.0 | 5.0 | 0.00 | 0.01 | 0.01 | 73 | 1012.6 |
| 20260905001602 | 87 | 165 | 2.0 | 5.0 | 0.00 | 0.01 | 0.01 | 73 | 1012.5 |
| 20260905001053 | 87 | 156 | 2.0 | 6.0 | 0.00 | 0.01 | 0.01 | 73 | 1012.5 |
| 20260905000556 | 87 | 129 | 2.0 | 6.0 | 0.00 | 0.01 | 0.01 | 73 | 1012.6 |
| 20260905000059 | 87 | 125 | 1.0 | 5.0 | 0.00 | 0.01 | 0.01 | 74 | 1012.5 |
| 20260904235554 | 87 | 0 | 2.0 | 5.0 | 0.00 | 0.01 | 0.01 | 74 | 1012.6 |
| 20260904235055 | 86 | 126 | 1.0 | 7.0 | 0.00 | 0.01 | 0.01 | 75 | 1012.5 |
| 20260904234558 | 86 | 113 | 2.0 | 7.0 | 0.00 | 0.01 | 0.01 | 75 | 1012.5 |
| 20260904234054 | 86 | 0 | 1.0 | 4.0 | 0.00 | 0.01 | 0.01 | 76 | 1012.5 |
| 20260904233552 | 86 | 126 | 1.0 | 8.0 | 0.00 | 0.01 | 0.01 | 76 | 1012.5 |
| 20260904233104 | 85 | 159 | 2.0 | 8.0 | 0.00 | 0.01 | 0.01 | 76 | 1012.6 |
| 20260904232616 | 85 | 154 | 1.0 | 8.0 | 0.00 | 0.01 | 0.01 | 76 | 1012.6 |
| 20260904232053 | 86 | 134 | 3.0 | 8.0 | 0.00 | 0.01 | 0.01 | 76 | 1012.7 |
| 20260904231602 | 86 | 109 | 3.0 | 8.0 | 0.00 | 0.01 | 0.01 | 76 | 1012.8 |
| 20260904231053 | 86 | 153 | 2.0 | 8.0 | 0.00 | 0.01 | 0.01 | 76 | 1012.7 |
| 20260904230555 | 86 | 180 | 1.0 | 9.0 | 0.00 | 0.01 | 0.01 | 76 | 1012.6 |
| 20260904230111 | 86 | 128 | 3.0 | 10.0 | 0.00 | 0.01 | 0.01 | 76 | 1012.6 |
| 20260904225553 | 86 | 163 | 2.0 | 11.0 | 0.00 | 0.01 | 0.01 | 77 | 1012.5 |
| 20260904225052 | 87 | 155 | 2.0 | 11.0 | 0.00 | 0.01 | 0.01 | 76 | 1012.5 |
| 20260904224615 | 87 | 165 | 5.0 | 12.0 | 0.00 | 0.01 | 0.01 | 75 | 1012.6 |
| 20260904224057 | 87 | 140 | 6.0 | 12.0 | 0.00 | 0.01 | 0.01 | 75 | 1012.7 |
| 20260904223557 | 88 | 156 | 5.0 | 10.0 | 0.00 | 0.01 | 0.01 | 75 | 1012.5 |
| 20260904223110 | 88 | 86 | 3.0 | 9.0 | 0.00 | 0.01 | 0.01 | 74 | 1012.4 |
| 20260904222552 | 88 | 138 | 2.0 | 9.0 | 0.00 | 0.01 | 0.01 | 77 | 1012.6 |
| 20260904222052 | 87 | 124 | 2.0 | 9.0 | 0.00 | 0.01 | 0.01 | 76 | 1012.7 |
| 20260904221628 | 87 | 134 | 3.0 | 8.0 | 0.00 | 0.01 | 0.01 | 77 | 1012.7 |
| 20260904221053 | 86 | 103 | 2.0 | 6.0 | 0.00 | 0.01 | 0.01 | 80 | 1012.9 |
| 20260904220552 | 86 | 119 | 2.0 | 8.0 | 0.00 | 0.01 | 0.01 | 81 | 1013.0 |
| 20260904215556 | 85 | 92 | 2.0 | 8.0 | 0.00 | 0.01 | 0.01 | 84 | 1013.0 |
| 20260904215056 | 85 | 96 | 2.0 | 7.0 | 0.01 | 0.01 | 0.01 | 85 | 1013.0 |
| 20260904214604 | 84 | 76 | 2.0 | 7.0 | 0.01 | 0.01 | 0.01 | 85 | 1013.1 |
| 20260904214052 | 84 | 109 | 2.0 | 5.0 | 0.01 | 0.01 | 0.01 | 86 | 1013.2 |
| 20260904213552 | 83 | 104 | 2.0 | 4.0 | 0.01 | 0.01 | 0.01 | 86 | 1013.2 |
| 20260904213104 | 83 | 0 | 1.0 | 4.0 | 0.01 | 0.01 | 0.01 | 86 | 1013.3 |
| 20260904212554 | 83 | 86 | 1.0 | 4.0 | 0.01 | 0.01 | 0.01 | 86 | 1013.4 |
| 20260904212056 | 83 | 88 | 1.0 | 4.0 | 0.01 | 0.01 | 0.01 | 86 | 1013.4 |
| 20260904211606 | 83 | 0 | 1.0 | 4.0 | 0.01 | 0.01 | 0.01 | 85 | 1013.3 |
| 20260904211053 | 83 | 101 | 1.0 | 4.0 | 0.01 | 0.01 | 0.01 | 84 | 1013.4 |
| 20260904210553 | 83 | 128 | 0.0 | 2.0 | 0.01 | 0.01 | 0.01 | 83 | 1013.4 |
| 20260904210120 | 83 | 128 | 0.0 | 0.0 | 0.01 | 0.01 | 0.01 | 83 | 1013.4 |
| 20260904205553 | 83 | 0 | 0.0 | 0.0 | 0.01 | 0.01 | 0.01 | 82 | 1013.5 |
| 20260904205052 | 83 | 0 | 0.0 | 3.0 | 0.00 | 0.00 | 0.00 | 80 | 1013.5 |
| 20260904204604 | 83 | 0 | 0.0 | 3.0 | 0.00 | 0.00 | 0.00 | 79 | 1013.5 |
| 20260904204056 | 83 | 128 | 1.0 | 5.0 | 0.00 | 0.00 | 0.00 | 78 | 1013.6 |
| 20260904203554 | 83 | 126 | 1.0 | 5.0 | 0.00 | 0.00 | 0.00 | 77 | 1013.7 |
| 20260904203058 | 83 | 158 | 1.0 | 6.0 | 0.00 | 0.00 | 0.00 | 76 | 1013.6 |
| 20260904202553 | 83 | 157 | 3.0 | 7.0 | 0.00 | 0.00 | 0.00 | 75 | 1013.7 |
| 20260904202052 | 83 | 150 | 2.0 | 9.0 | 0.00 | 0.00 | 0.00 | 74 | 1013.6 |
| 20260904201616 | 83 | 176 | 4.0 | 9.0 | 0.00 | 0.00 | 0.00 | 74 | 1013.6 |
| 20260904201052 | 83 | 175 | 3.0 | 9.0 | 0.00 | 0.00 | 0.00 | 73 | 1013.7 |
| 20260904200552 | 84 | 176 | 3.0 | 8.0 | 0.00 | 0.00 | 0.00 | 73 | 1013.7 |
| 20260904200119 | 84 | 173 | 3.0 | 13.0 | 0.00 | 0.00 | 0.00 | 73 | 1013.8 |
| 20260904195554 | 85 | 151 | 4.0 | 13.0 | 0.00 | 0.00 | 0.00 | 72 | 1014.0 |
| 20260904195053 | 85 | 156 | 6.0 | 13.0 | 0.00 | 0.00 | 0.00 | 71 | 1014.1 |
| 20260904194604 | 86 | 148 | 5.0 | 12.0 | 0.00 | 0.00 | 0.00 | 70 | 1014.2 |
| 20260904194052 | 87 | 129 | 3.0 | 14.0 | 0.00 | 0.00 | 0.00 | 70 | 1014.2 |
| 20260904193553 | 87 | 182 | 6.0 | 14.0 | 0.00 | 0.00 | 0.00 | 68 | 1014.5 |
| 20260904193100 | 88 | 142 | 8.0 | 14.0 | 0.00 | 0.00 | 0.00 | 66 | 1014.7 |
| 20260904192552 | 89 | 186 | 0.0 | 8.0 | 0.00 | 0.00 | 0.00 | 66 | 1014.3 |
| 20260904192052 | 89 | 90 | 2.0 | 8.0 | 0.00 | 0.00 | 0.00 | 67 | 1014.2 |
| 20260904191602 | 88 | 101 | 1.0 | 6.0 | 0.00 | 0.00 | 0.00 | 68 | 1014.2 |
| 20260904191052 | 88 | 88 | 1.0 | 5.0 | 0.00 | 0.00 | 0.00 | 70 | 1014.4 |
| 20260904190553 | 88 | 100 | 1.0 | 4.0 | 0.00 | 0.00 | 0.00 | 71 | 1014.4 |
| 20260904185555 | 88 | 0 | 2.0 | 4.0 | 0.00 | 0.00 | 0.00 | 73 | 1014.2 |
| 20260904185055 | 88 | 48 | 1.0 | 5.0 | 0.00 | 0.00 | 0.00 | 73 | 1014.2 |
| 20260904184605 | 89 | 27 | 1.0 | 5.0 | 0.00 | 0.00 | 0.00 | 72 | 1014.3 |
| 20260904184053 | 89 | 303 | 1.0 | 4.0 | 0.00 | 0.00 | 0.00 | 72 | 1014.5 |
| 20260904183553 | 88 | 30 | 0.0 | 3.0 | 0.00 | 0.00 | 0.00 | 72 | 1014.4 |
| 20260904183058 | 88 | 0 | 0.0 | 3.0 | 0.00 | 0.00 | 0.00 | 71 | 1014.6 |
| 20260904182552 | 88 | 268 | 0.0 | 6.0 | 0.00 | 0.00 | 0.00 | 71 | 1014.8 |
| 20260904182053 | 88 | 269 | 2.0 | 8.0 | 0.00 | 0.00 | 0.00 | 70 | 1014.7 |
| 20260904181604 | 88 | 269 | 3.0 | 8.0 | 0.00 | 0.00 | 0.00 | 69 | 1014.7 |
| 20260904181054 | 88 | 317 | 1.0 | 9.0 | 0.00 | 0.00 | 0.00 | 71 | 1014.7 |
| 20260904180552 | 88 | 128 | 1.0 | 9.0 | 0.00 | 0.00 | 0.00 | 71 | 1014.7 |
| 20260904180100 | 89 | 139 | 2.0 | 8.0 | 0.00 | 0.00 | 0.00 | 71 | 1014.8 |
| 20260904175552 | 89 | 96 | 3.0 | 8.0 | 0.00 | 0.00 | 0.00 | 71 | 1014.8 |
| 20260904175052 | 89 | 167 | 3.0 | 7.0 | 0.00 | 0.00 | 0.00 | 71 | 1014.9 |
| 20260904174602 | 89 | 32 | 2.0 | 8.0 | 0.00 | 0.00 | 0.00 | 69 | 1015.0 |
| 20260904174052 | 90 | 104 | 2.0 | 8.0 | 0.00 | 0.00 | 0.00 | 67 | 1014.9 |
| 20260904173552 | 91 | 19 | 2.0 | 8.0 | 0.00 | 0.00 | 0.00 | 65 | 1014.9 |
| 20260904173104 | 91 | 0 | 1.0 | 6.0 | 0.00 | 0.00 | 0.00 | 64 | 1014.9 |
| 20260904172552 | 92 | 111 | 2.0 | 8.0 | 0.00 | 0.00 | 0.00 | 64 | 1015.1 |
| 20260904172052 | 92 | 0 | 2.0 | 8.0 | 0.00 | 0.00 | 0.00 | 63 | 1014.9 |
| 20260904171623 | 93 | 145 | 2.0 | 7.0 | 0.00 | 0.00 | 0.00 | 62 | 1015.1 |
| 20260904171052 | 94 | 180 | 3.0 | 7.0 | 0.00 | 0.00 | 0.00 | 62 | 1015.1 |
| 20260904170555 | 95 | 187 | 1.0 | 7.0 | 0.00 | 0.00 | 0.00 | 61 | 1015.2 |
| 20260904170059 | 95 | 212 | 2.0 | 11.0 | 0.00 | 0.00 | 0.00 | 60 | 1015.1 |
| 20260904165553 | 96 | 204 | 5.0 | 11.0 | 0.00 | 0.00 | 0.00 | 60 | 1015.2 |
| 20260904165053 | 95 | 211 | 5.0 | 14.0 | 0.00 | 0.00 | 0.00 | 61 | 1015.1 |
| 20260904164605 | 95 | 220 | 5.0 | 14.0 | 0.00 | 0.00 | 0.00 | 59 | 1015.0 |
| 20260904164052 | 95 | 143 | 4.0 | 10.0 | 0.00 | 0.00 | 0.00 | 61 | 1015.0 |
| 20260904163552 | 94 | 157 | 6.0 | 10.0 | 0.00 | 0.00 | 0.00 | 61 | 1015.1 |
| 20260904163103 | 93 | 153 | 5.0 | 9.0 | 0.00 | 0.00 | 0.00 | 62 | 1015.2 |
| 20260904162552 | 93 | 0 | 2.0 | 7.0 | 0.00 | 0.00 | 0.00 | 66 | 1015.2 |
| 20260904162053 | 92 | 279 | 4.0 | 10.0 | 0.00 | 0.00 | 0.00 | 67 | 1015.2 |
| 20260904161611 | 92 | 237 | 3.0 | 10.0 | 0.00 | 0.00 | 0.00 | 66 | 1015.0 |
| 20260904161052 | 92 | 202 | 6.0 | 10.0 | 0.00 | 0.00 | 0.00 | 64 | 1015.0 |
| 20260904160553 | 92 | 184 | 2.0 | 9.0 | 0.00 | 0.00 | 0.00 | 67 | 1015.0 |
| 20260904160104 | 92 | 238 | 3.0 | 9.0 | 0.00 | 0.00 | 0.00 | 68 | 1015.0 |
| 20260904155555 | 92 | 252 | 3.0 | 10.0 | 0.00 | 0.00 | 0.00 | 67 | 1015.0 |
| 20260904155055 | 92 | 251 | 2.0 | 10.0 | 0.00 | 0.00 | 0.00 | 67 | 1015.0 |
| 20260904154602 | 92 | 244 | 5.0 | 10.0 | 0.00 | 0.00 | 0.00 | 67 | 1015.0 |
| 20260904154055 | 91 | 248 | 4.0 | 9.0 | 0.00 | 0.00 | 0.00 | 69 | 1015.0 |
| 20260904153552 | 90 | 248 | 4.0 | 11.0 | 0.00 | 0.00 | 0.00 | 69 | 1014.9 |
| 20260904153119 | 89 | 181 | 5.0 | 12.0 | 0.00 | 0.00 | 0.00 | 70 | 1014.9 |
| 20260904152551 | 89 | 232 | 6.0 | 12.0 | 0.00 | 0.00 | 0.00 | 71 | 1015.0 |
| 20260904152052 | 88 | 213 | 5.0 | 10.0 | 0.00 | 0.00 | 0.00 | 72 | 1015.0 |
| 20260904151605 | 88 | 205 | 5.0 | 10.0 | 0.00 | 0.00 | 0.00 | 72 | 1015.0 |
| 20260904151053 | 88 | 223 | 5.0 | 10.0 | 0.00 | 0.00 | 0.00 | 70 | 1015.1 |
| 20260904150552 | 88 | 201 | 5.0 | 10.0 | 0.00 | 0.00 | 0.00 | 72 | 1015.0 |
| 20260904150103 | 89 | 207 | 3.0 | 9.0 | 0.00 | 0.00 | 0.00 | 72 | 1015.0 |
| 20260904145553 | 89 | 175 | 5.0 | 10.0 | 0.00 | 0.00 | 0.00 | 73 | 1015.0 |
| 20260904145053 | 89 | 211 | 6.0 | 10.0 | 0.00 | 0.00 | 0.00 | 73 | 1014.9 |
| 20260904144614 | 88 | 209 | 6.0 | 10.0 | 0.00 | 0.00 | 0.00 | 75 | 1015.0 |
| 20260904144052 | 87 | 146 | 1.0 | 8.0 | 0.00 | 0.00 | 0.00 | 80 | 1014.9 |
| 20260904143552 | 86 | 167 | 2.0 | 8.0 | 0.00 | 0.00 | 0.00 | 82 | 1014.7 |
| 20260904143121 | 85 | 0 | 1.0 | 5.0 | 0.00 | 0.00 | 0.00 | 84 | 1014.7 |
| 20260904142552 | 85 | 140 | 1.0 | 7.0 | 0.00 | 0.00 | 0.00 | 86 | 1014.7 |
| 20260904142052 | 84 | 219 | 3.0 | 7.0 | 0.00 | 0.00 | 0.00 | 87 | 1014.7 |
| 20260904141559 | 84 | 197 | 5.0 | 9.0 | 0.00 | 0.00 | 0.00 | 88 | 1014.7 |
| 20260904141051 | 83 | 226 | 5.0 | 9.0 | 0.00 | 0.00 | 0.00 | 89 | 1014.8 |
| 20260904140556 | 83 | 215 | 5.0 | 9.0 | 0.00 | 0.00 | 0.00 | 90 | 1014.7 |
| 20260904140058 | 82 | 190 | 4.0 | 6.0 | 0.00 | 0.00 | 0.00 | 91 | 1014.7 |
| 20260904135552 | 82 | 209 | 3.0 | 6.0 | 0.00 | 0.00 | 0.00 | 91 | 1014.6 |
| 20260904135053 | 81 | 193 | 3.0 | 6.0 | 0.00 | 0.00 | 0.00 | 92 | 1014.6 |
| 20260904134606 | 81 | 190 | 2.0 | 4.0 | 0.00 | 0.00 | 0.00 | 92 | 1014.6 |
| 20260904134052 | 81 | 188 | 0.0 | 5.0 | 0.00 | 0.00 | 0.00 | 92 | 1014.5 |
| 20260904133552 | 81 | 188 | 2.0 | 6.0 | 0.00 | 0.00 | 0.00 | 93 | 1014.5 |
| 20260904133111 | 81 | 193 | 3.0 | 6.0 | 0.00 | 0.00 | 0.00 | 93 | 1014.4 |
| 20260904132552 | 80 | 161 | 3.0 | 6.0 | 0.00 | 0.00 | 0.00 | 93 | 1014.4 |
| 20260904132052 | 80 | 0 | 0.0 | 0.0 | 0.00 | 0.00 | 0.00 | 93 | 1014.4 |
| 20260904131603 | 80 | 0 | 0.0 | 0.0 | 0.00 | 0.00 | 0.00 | 93 | 1014.2 |
| 20260904131056 | 79 | 0 | 0.0 | 0.0 | 0.00 | 0.00 | 0.00 | 93 | 1014.3 |
| 20260904130551 | 79 | 0 | 0.0 | 0.0 | 0.00 | 0.00 | 0.00 | 93 | 1014.2 |
| 20260904130108 | 79 | 0 | 0.0 | 0.0 | 0.00 | 0.00 | 0.00 | 92 | 1014.3 |
| 20260904125552 | 79 | 0 | 0.0 | 0.0 | 0.00 | 0.00 | 0.00 | 92 | 1014.2 |
| 20260904125056 | 79 | 0 | 0.0 | 0.0 | 0.00 | 0.00 | 0.00 | 92 | 1014.1 |
| 20260904124559 | 78 | 0 | 0.0 | 0.0 | 0.00 | 0.00 | 0.00 | 92 | 1014.2 |
| 20260904124052 | 79 | 0 | 0.0 | 0.0 | 0.00 | 0.00 | 0.00 | 92 | 1014.1 |
| 20260904123553 | 79 | 0 | 0.0 | 0.0 | 0.00 | 0.00 | 0.00 | 92 | 1014.1 |
| 20260904123100 | 78 | 0 | 0.0 | 0.0 | 0.00 | 0.00 | 0.00 | 92 | 1014.1 |
| 20260904122552 | 78 | 0 | 0.0 | 0.0 | 0.00 | 0.00 | 0.00 | 92 | 1014.0 |
| 20260904122052 | 79 | 0 | 0.0 | 0.0 | 0.00 | 0.00 | 0.00 | 92 | 1014.0 |
| 20260904121556 | 79 | 0 | 0.0 | 0.0 | 0.00 | 0.00 | 0.00 | 92 | 1013.9 |
| 20260904121051 | 79 | 0 | 0.0 | 0.0 | 0.00 | 0.00 | 0.00 | 92 | 1013.8 |
| 20260904120552 | 79 | 0 | 0.0 | 0.0 | 0.00 | 0.00 | 0.00 | 92 | 1013.9 |
| 20260904120109 | 79 | 0 | 0.0 | 0.0 | 0.00 | 0.00 | 0.00 | 92 | 1013.8 |
| 20260904115552 | 78 | 0 | 0.0 | 0.0 | 0.00 | 0.00 | 0.00 | 91 | 1013.6 |
| 20260904115052 | 79 | 0 | 0.0 | 0.0 | 0.00 | 0.00 | 0.00 | 91 | 1013.6 |
| 20260904114606 | 79 | 0 | 0.0 | 0.0 | 0.00 | 0.00 | 0.00 | 91 | 1013.5 |
| 20260904114053 | 79 | 0 | 0.0 | 0.0 | 0.00 | 0.00 | 0.00 | 91 | 1013.6 |
| 20260904113551 | 79 | 0 | 0.0 | 0.0 | 0.00 | 0.00 | 0.00 | 91 | 1013.7 |
| 20260904113058 | 79 | 0 | 0.0 | 0.0 | 0.00 | 0.00 | 0.00 | 91 | 1013.8 |
| 20260904112552 | 79 | 0 | 0.0 | 0.0 | 0.00 | 0.00 | 0.00 | 91 | 1013.7 |
| 20260904112051 | 79 | 0 | 0.0 | 0.0 | 0.00 | 0.00 | 0.00 | 91 | 1013.7 |
| 20260904111557 | 79 | 0 | 0.0 | 0.0 | 0.00 | 0.00 | 0.00 | 91 | 1013.7 |
| 20260904111051 | 79 | 0 | 0.0 | 0.0 | 0.00 | 0.00 | 0.00 | 91 | 1013.7 |
| 20260904110552 | 79 | 0 | 0.0 | 0.0 | 0.00 | 0.00 | 0.00 | 91 | 1013.7 |
| 20260904110101 | 79 | 0 | 0.0 | 0.0 | 0.00 | 0.00 | 0.00 | 91 | 1013.7 |
| 20260904105552 | 79 | 0 | 0.0 | 0.0 | 0.00 | 0.00 | 0.00 | 91 | 1013.7 |
| 20260904105052 | 79 | 0 | 0.0 | 0.0 | 0.00 | 0.00 | 0.00 | 90 | 1013.6 |
| 20260904104601 | 79 | 0 | 0.0 | 0.0 | 0.00 | 0.00 | 0.00 | 90 | 1013.6 |
| 20260904104052 | 79 | 0 | 0.0 | 0.0 | 0.00 | 0.00 | 0.00 | 90 | 1013.6 |
| 20260904103551 | 79 | 0 | 0.0 | 0.0 | 0.00 | 0.00 | 0.00 | 90 | 1013.6 |
| 20260904103057 | 79 | 0 | 0.0 | 0.0 | 0.00 | 0.00 | 0.00 | 90 | 1013.6 |
| 20260904102552 | 79 | 0 | 0.0 | 0.0 | 0.00 | 0.00 | 0.00 | 90 | 1013.6 |